Location: Heidgraben
(53.7081°N, 9.6576°E)
Time: 20:19:25
(UTC+00:00)

Genesis I - Pass Details

Date: 05 July 2020
Orbit: 509 x 513 km, 64.5° (Epoch: 14 August)

Event Time Altitude Azimuth Distance (km) Brightness Sun altitude
Exits shadow 22:18:48 18° 184° (S) 1,300 4.6 -12.2°
Maximum altitude 22:21:12 37° 125° (SE) 801 3.8 -12.3°
Drops below altitude 10° 22:24:48 10° 57° (ENE) 1,738 6.1 -12.5°
Sets 22:27:04 0° 49° (NE) 2,628 7.2 -12.6°
